Regional Weather Roundup
Issued by NWS

Home | Current Version | Previous Version | Graphics & Text | Print | Product List | Glossary On
Versions: 1 2 3 4 5 6 7 8 9 10 11 12 13 14 15 16 17 18 19 20 21 22 23 24 25 26 27 28 29 30 31 32 33 34 35 36 37 38 39 40 41 42 43 44 45 46 47 48 49 50
194
ASUS45 KCYS 221110
RWRWY

WYOMING REGIONAL WEATHER ROUNDUP
NATIONAL WEATHER SERVICE CHEYENNE WY
400 AM MST WED FEB 22 2017

NOTE:  "FAIR" INDICATES FEW OR NO CLOUDS BELOW 12,000 FEET
WITH NO SIGNIFICANT WEATHER AND/OR OBSTRUCTIONS TO VISIBILITY.

WYZ001-221200-
YELLOWSTONE NATIONAL PARK

CITY           SKY/WX    TMP DP  RH WIND       PRES   REMARKS
LK YELLOWSTONE   N/A     20  17  88 VRB6      29.87F WCI  12
W YELLOWSTONE  NOT AVBL

$$
WYZ002>013-054>058-071-098>099-221200-
NORTHERN WYOMING

CITY           SKY/WX    TMP DP  RH WIND       PRES   REMARKS
JACKSON        CLOUDY    30  21  69 W3        29.92S
CODY           FAIR      35  21  56 W17G23    29.82R WCI  25
GREYBULL       FAIR      36  24  62 NW7       29.81R WCI  30
WORLAND        FAIR      32  23  69 NW6       29.82R WCI  26
SHERIDAN       FAIR      40  17  39 VRB7      29.75R
BUFFALO        FAIR      43  12  28 W23G35    29.72F
GILLETTE       FAIR      39  26  59 SW10      29.74R WCI  32
HULETT         CLOUDY    43  32  65 SW8       29.73S
NEWCASTLE      FAIR      41  28  60 NW5       29.77R

$$
WYZ014>020-022>026-101>103-221200-
CENTRAL WYOMING

CITY           SKY/WX    TMP DP  RH WIND       PRES   REMARKS
BIG PINEY      FAIR      24  17  74 W8        29.93F WCI  15
PINEDALE       PTSUNNY   27  19  74 SW8       29.95S WCI  18
DUBOIS         FAIR      23  16  74 NW13      29.85F WCI  11
LANDER         FAIR      32  23  69 SW20      29.87  WCI  20
RIVERTON       FAIR      32  23  69 W9        29.88R WCI  24
CASPER         CLOUDY    36  23  59 SW18G29   29.84R WCI  26
DOUGLAS        CLOUDY    41  26  55 W15       29.85R

$$
WYZ021-027>030-104>119-221200-
SOUTHERN WYOMING

CITY           SKY/WX    TMP DP  RH WIND       PRES   REMARKS
EVANSTON       LGT SNOW  24  21  88 N8        29.98F FOG     WCI  15
FORT BRIDGER   LGT SNOW  26  26 100 W6        30.01F WCI  19
ROCK SPRINGS   CLOUDY    27  25  92 W10       29.97F WCI  17
DIXON          LGT SNOW  30  29  96 CALM      30.02S
RAWLINS        FLURRIES  29  25  85 SW14      29.95S WCI  18
SARATOGA       LGT SNOW  28  28 100 S8        29.97F WCI  20
LARAMIE        CLOUDY    28  22  78 N7        29.94S WCI  21
CHEYENNE       FAIR      34  24  67 NW15G23   29.91R WCI  24
TORRINGTON     CLOUDY    41  28  60 W13       29.85R
PINE BLUFFS    FAIR      36  28  75 NW26G36   29.87S WCI  23

$$




USA.gov is the U.S. government's official web portal to all federal, state and local government web resources and services.